Voltar ao catálogo

STARLINK-34352

AtivoComunicaçõesVLEO
NORAD 64257·PAYLOAD·🇺🇸 United States

Lançado Jun 4, 2025 de Vandenberg Space Force Base

Loading…

Próximas Passagens (próximas 24 horas)

TLE

AtualizadoSource: CelesTrak SupGP

Época: Sep 15, 2026, 03:52 UTC

1 64257C 25120B   26258.16159722  .00028544  00000+0  84321-3 0  2581
2 64257  53.1597 314.4039 0001262  89.8480   7.8093 15.34381210    14

Acompanhe STARLINK-34352 em tempo real com AllMySat

Download on the App Store